User: anonymous   Login
Location: Unspecified
(0.0000°N, 0.0000°E)
Time: 12:19:41
(UTC+00:00)
Language:

AGILE - Orbit

View from above orbital plane
View from above orbital plane
View from above satellite
View from above satellite

Ground track
Ground track

The orbit data is extracted from the following two-line orbital elements,

1 31135U 07013A   15027.46176709  .00007281  00000-0  25539-3 0  1356
2 31135 002.4691 031.3889 0015555 167.2395 192.8053 15.23013165430207
Epoch (UTC): 27 January 2015 11:04:56
Eccentricity: 0.0015555
inclination: 2.4691°
perigee height: 486 km
apogee height: 507 km
right ascension of ascending node: 31.3889°
argument of perigee: 167.2395°
revolutions per day: 15.23013165
mean anomaly at epoch: 192.8053°
orbit number at epoch: 43020

The dashed part of the orbit path shows where the satellite is in the earth's shadow,  

DLR